When you browse on this site, cookies collect data to enhance your experience and personalize the content and advertising you see.
Visit our Privacy Policy to learn more. By continuing to use the site, you agree to this use of cookies and data.
  • In Schweiz
  • Länderverzeichnis
  • Für 7 Tage
  • Wassertemperatur
  • Wetterkarte
  • Widgets
  • user-avatar
    Anmelden

    Stündliche Wetter Lankaran

    Heute, 18 Oktober, Freitag

    Zeit Temperatur Niederschläge Wind Luftdruck Luftfeuchtigkeit
    00:00 +10°C° 0 mm 0 m/S 637 mmHg 75%
    01:00 +10°C° 0 mm 0 m/S 636 mmHg 75%
    02:00 +10°C° 0 mm 0 m/S 636 mmHg 75%
    03:00 +9°C° 0 mm 0 m/S 636 mmHg 74%
    04:00 +9°C° 0 mm 0 m/S 636 mmHg 75%
    05:00 +9°C° 0 mm 0 m/S 636 mmHg 75%
    06:00 +9°C° 0 mm 0 m/S 636 mmHg 75%
    07:00 +10°C° 0 mm 0 m/S 636 mmHg 69%
    08:00 +13°C° 0 mm 1 m/S 637 mmHg 62%
    09:00 +15°C° 0 mm 1 m/S 638 mmHg 56%
    10:00 +16°C° 0 mm 1 m/S 638 mmHg 54%
    11:00 +18°C° 0 mm 1 m/S 638 mmHg 52%
    12:00 +18°C° 0 mm 2 m/S 638 mmHg 50%
    13:00 +18°C° 0 mm 2 m/S 638 mmHg 53%
    14:00 +18°C° 0 mm 2 m/S 637 mmHg 56%
    15:00 +18°C° 0 mm 2 m/S 636 mmHg 59%
    16:00 +16°C° 0 mm 2 m/S 636 mmHg 64%
    17:00 +15°C° 0 mm 1 m/S 636 mmHg 69%
    18:00 +14°C° 0 mm 1 m/S 635 mmHg 73%
    19:00 +13°C° 0 mm 0 m/S 635 mmHg 72%
    20:00 +12°C° 0 mm 0 m/S 635 mmHg 71%
    21:00 +12°C° 0 mm 0 m/S 635 mmHg 70%
    22:00 +12°C° 0 mm 0 m/S 635 mmHg 69%
    23:00 +12°C° 0 mm 0 m/S 635 mmHg 68%

    Morgen, 19 Oktober, Samstag

    Zeit Temperatur Niederschläge Wind Luftdruck Luftfeuchtigkeit
    00:00 +12°C° 0 mm 1 m/S 635 mmHg 67%
    01:00 +12°C° 0 mm 1 m/S 635 mmHg 67%
    02:00 +11°C° 0 mm 0 m/S 634 mmHg 67%
    03:00 +11°C° 0 mm 0 m/S 634 mmHg 68%
    04:00 +10°C° 0 mm 0 m/S 634 mmHg 68%
    05:00 +10°C° 0 mm 0 m/S 634 mmHg 68%
    06:00 +10°C° 0 mm 0 m/S 634 mmHg 69%
    07:00 +12°C° 0 mm 0 m/S 635 mmHg 62%
    08:00 +15°C° 0 mm 1 m/S 636 mmHg 56%
    09:00 +18°C° 0 mm 1 m/S 637 mmHg 50%
    10:00 +18°C° 0 mm 1 m/S 637 mmHg 50%
    11:00 +18°C° 0 mm 2 m/S 638 mmHg 50%
    12:00 +19°C° 0 mm 2 m/S 638 mmHg 50%
    13:00 +18°C° 0.1 mm 2 m/S 637 mmHg 54%
    14:00 +18°C° 0.1 mm 2 m/S 637 mmHg 57%
    15:00 +17°C° 0.1 mm 2 m/S 636 mmHg 61%
    16:00 +16°C° 0 mm 2 m/S 636 mmHg 67%
    17:00 +15°C° 0 mm 1 m/S 636 mmHg 73%
    18:00 +14°C° 0 mm 1 m/S 636 mmHg 79%
    19:00 +13°C° 0 mm 1 m/S 636 mmHg 79%
    20:00 +13°C° 0 mm 1 m/S 636 mmHg 79%
    21:00 +11°C° 0 mm 0 m/S 636 mmHg 79%
    22:00 +11°C° 0 mm 0 m/S 636 mmHg 80%
    23:00 +11°C° 0 mm 0 m/S 636 mmHg 81%

    übermorgen, 20 Oktober, Sonntag

    Zeit Temperatur Niederschläge Wind Luftdruck Luftfeuchtigkeit
    00:00 +10°C° 0 mm 0 m/S 636 mmHg 81%
    01:00 +10°C° 0 mm 0 m/S 636 mmHg 82%
    02:00 +10°C° 0 mm 0 m/S 636 mmHg 84%
    03:00 +10°C° 0 mm 0 m/S 636 mmHg 85%
    04:00 +9°C° 0 mm 0 m/S 636 mmHg 87%
    05:00 +9°C° 0 mm 0 m/S 636 mmHg 89%
    06:00 +10°C° 0 mm 1 m/S 636 mmHg 91%
    07:00 +11°C° 0 mm 1 m/S 637 mmHg 84%
    08:00 +12°C° 0 mm 1 m/S 637 mmHg 77%
    09:00 +13°C° 0 mm 2 m/S 638 mmHg 70%
    10:00 +14°C° 0 mm 2 m/S 638 mmHg 65%
    11:00 +14°C° 0 mm 3 m/S 638 mmHg 60%
    12:00 +16°C° 0 mm 3 m/S 638 mmHg 55%
    13:00 +14°C° 0.1 mm 3 m/S 638 mmHg 58%
    14:00 +14°C° 0.1 mm 3 m/S 637 mmHg 60%
    15:00 +13°C° 0.1 mm 3 m/S 637 mmHg 63%
    16:00 +12°C° 0 mm 3 m/S 637 mmHg 69%
    17:00 +12°C° 0 mm 2 m/S 637 mmHg 74%
    18:00 +10°C° 0 mm 2 m/S 637 mmHg 80%
    19:00 +11°C° 0 mm 1 m/S 637 mmHg 72%
    20:00 +11°C° 0 mm 1 m/S 637 mmHg 63%
    21:00 +10°C° 0 mm 1 m/S 637 mmHg 55%
    22:00 +10°C° 0 mm 1 m/S 637 mmHg 53%
    23:00 +9°C° 0 mm 0 m/S 637 mmHg 52%

    21 Oktober, Montag

    Zeit Temperatur Niederschläge Wind Luftdruck Luftfeuchtigkeit
    00:00 +9°C° 0 mm 0 m/S 637 mmHg 51%
    01:00 +9°C° 0 mm 1 m/S 637 mmHg 51%
    02:00 +9°C° 0 mm 1 m/S 636 mmHg 50%
    03:00 +9°C° 0 mm 1 m/S 636 mmHg 50%
    04:00 +8°C° 0 mm 1 m/S 636 mmHg 52%
    05:00 +8°C° 0 mm 1 m/S 636 mmHg 54%
    06:00 +8°C° 0 mm 1 m/S 636 mmHg 56%
    07:00 +9°C° 0 mm 1 m/S 637 mmHg 53%
    08:00 +11°C° 0 mm 1 m/S 638 mmHg 50%
    09:00 +12°C° 0 mm 1 m/S 638 mmHg 47%
    10:00 +13°C° 0 mm 2 m/S 638 mmHg 47%
    11:00 +14°C° 0 mm 2 m/S 638 mmHg 46%
    12:00 +13°C° 0 mm 3 m/S 638 mmHg 46%
    13:00 +13°C° 0 mm 3 m/S 638 mmHg 50%
    14:00 +13°C° 0 mm 3 m/S 638 mmHg 55%
    15:00 +12°C° 0 mm 3 m/S 637 mmHg 59%
    16:00 +12°C° 0 mm 2 m/S 637 mmHg 65%
    17:00 +10°C° 0 mm 2 m/S 637 mmHg 71%
    18:00 +10°C° 0 mm 1 m/S 637 mmHg 77%
    19:00 +9°C° 0 mm 1 m/S 637 mmHg 70%
    20:00 +9°C° 0 mm 1 m/S 637 mmHg 63%
    21:00 +9°C° 0 mm 1 m/S 637 mmHg 56%
    22:00 +9°C° 0 mm 1 m/S 636 mmHg 54%
    23:00 +8°C° 0 mm 0 m/S 636 mmHg 52%

    22 Oktober, Dienstag

    Zeit Temperatur Niederschläge Wind Luftdruck Luftfeuchtigkeit
    00:00 +7°C° 0 mm 0 m/S 636 mmHg 50%
    01:00 +7°C° 0 mm 0 m/S 636 mmHg 50%
    02:00 +7°C° 0 mm 0 m/S 636 mmHg 51%
    03:00 +7°C° 0 mm 0 m/S 636 mmHg 51%
    04:00 +6°C° 0 mm 0 m/S 636 mmHg 52%
    05:00 +6°C° 0 mm 0 m/S 636 mmHg 53%
    06:00 +6°C° 0 mm 0 m/S 636 mmHg 55%
    07:00 +8°C° 0 mm 0 m/S 636 mmHg 51%
    08:00 +10°C° 0 mm 1 m/S 637 mmHg 48%
    09:00 +12°C° 0 mm 1 m/S 638 mmHg 44%
    10:00 +13°C° 0 mm 1 m/S 638 mmHg 45%
    11:00 +14°C° 0 mm 2 m/S 638 mmHg 46%
    12:00 +14°C° 0 mm 2 m/S 638 mmHg 47%
    13:00 +14°C° 0 mm 2 m/S 638 mmHg 50%
    14:00 +14°C° 0 mm 2 m/S 637 mmHg 54%
    15:00 +13°C° 0 mm 3 m/S 637 mmHg 57%
    16:00 +13°C° 0 mm 2 m/S 637 mmHg 63%
    17:00 +11°C° 0 mm 1 m/S 636 mmHg 69%
    18:00 +10°C° 0 mm 1 m/S 636 mmHg 76%
    19:00 +10°C° 0 mm 1 m/S 636 mmHg 74%
    20:00 +9°C° 0 mm 0 m/S 636 mmHg 73%
    21:00 +9°C° 0 mm 0 m/S 636 mmHg 72%
    22:00 +9°C° 0 mm 0 m/S 636 mmHg 72%
    23:00 +9°C° 0 mm 0 m/S 635 mmHg 72%

    23 Oktober, Mittwoch

    Zeit Temperatur Niederschläge Wind Luftdruck Luftfeuchtigkeit
    00:00 +8°C° 0 mm 0 m/S 635 mmHg 71%
    01:00 +8°C° 0 mm 0 m/S 635 mmHg 72%
    02:00 +8°C° 0 mm 0 m/S 635 mmHg 72%
    03:00 +8°C° 0 mm 0 m/S 635 mmHg 73%
    04:00 +8°C° 0 mm 0 m/S 635 mmHg 74%
    05:00 +8°C° 0 mm 0 m/S 635 mmHg 75%
    06:00 +7°C° 0 mm 0 m/S 635 mmHg 76%
    07:00 +9°C° 0 mm 0 m/S 635 mmHg 71%
    08:00 +10°C° 0 mm 0 m/S 636 mmHg 66%
    09:00 +13°C° 0 mm 1 m/S 637 mmHg 61%
    10:00 +13°C° 0.1 mm 1 m/S 637 mmHg 59%
    11:00 +14°C° 0.1 mm 2 m/S 637 mmHg 58%
    12:00 +15°C° 0.1 mm 2 m/S 637 mmHg 56%
    13:00 +15°C° 0.2 mm 2 m/S 636 mmHg 59%
    14:00 +14°C° 0.2 mm 2 m/S 636 mmHg 62%
    15:00 +14°C° 0.2 mm 2 m/S 636 mmHg 65%
    16:00 +13°C° 0.1 mm 2 m/S 636 mmHg 71%
    17:00 +12°C° 0.1 mm 1 m/S 635 mmHg 76%
    18:00 +11°C° 0.1 mm 1 m/S 635 mmHg 82%
    19:00 +10°C° 0 mm 1 m/S 635 mmHg 82%
    20:00 +9°C° 0 mm 0 m/S 635 mmHg 81%
    21:00 +9°C° 0 mm 0 m/S 635 mmHg 81%
    22:00 +9°C° 0 mm 0 m/S 635 mmHg 81%
    23:00 +8°C° 0 mm 0 m/S 635 mmHg 81%
    Mehr zeigen